FW7010 Weather Reports


Display with metric or nautical units.
time (UTC)temp
F
wind
direction
speed
MPH
gust
MPH
rain 1hr
in
rain 24hr
in
rain mn
in
humidity
%
barometer
mb
20220118070942 48 338 0.0 0.0 0.00 0.00 0.00 57 1019.6
20220118070441 48 332 0.0 0.0 0.00 0.00 0.00 55 1019.6
20220118065940 48 332 0.0 1.0 0.00 0.00 0.00 54 1019.6
20220118065439 48 354 0.0 0.0 0.00 0.00 0.00 54 1019.6
20220118064940 49 340 0.0 0.0 0.00 0.00 0.00 53 1019.6
20220118064438 49 308 1.0 1.0 0.00 0.00 0.00 51 1020.0
20220118063937 49 340 0.0 1.0 0.00 0.00 0.00 50 1019.6
20220118063438 49 323 0.0 1.0 0.00 0.00 0.00 49 1019.6
20220118062936 50 300 1.0 2.0 0.00 0.00 0.00 48 1019.6
20220118062435 50 336 1.0 1.0 0.00 0.00 0.00 47 1019.6
20220118061935 50 311 1.0 1.0 0.00 0.00 0.00 46 1019.6
20220118061434 50 338 1.0 1.0 0.00 0.00 0.00 45 1019.6
20220118060934 51 339 1.0 1.0 0.00 0.00 0.00 44 1020.0
20220118060433 51 286 1.0 1.0 0.00 0.00 0.00 44 1020.0
20220118055932 51 330 1.0 2.0 0.00 0.00 0.00 43 1020.0
20220118055431 51 290 1.0 2.0 0.00 0.00 0.00 42 1020.0
20220118054932 51 279 2.0 2.0 0.00 0.00 0.00 40 1020.0
20220118054430 51 329 2.0 2.0 0.00 0.00 0.00 39 1020.0
20220118053929 51 297 0.0 1.0 0.00 0.00 0.00 38 1020.0
20220118053428 52 262 1.0 1.0 0.00 0.00 0.00 38 1020.0
20220118052927 52 260 1.0 1.0 0.00 0.00 0.00 38 1020.0
20220118052426 52 317 1.0 1.0 0.00 0.00 0.00 38 1020.0
20220118051925 52 318 1.0 2.0 0.00 0.00 0.00 37 1020.0
20220118051424 52 337 1.0 2.0 0.00 0.00 0.00 37 1020.3
20220118050922 53 327 1.0 1.0 0.00 0.00 0.00 37 1020.3
20220118050421 53 331 2.0 2.0 0.00 0.00 0.00 36 1020.0
20220118045920 53 31 1.0 2.0 0.00 0.00 0.00 36 1020.0
20220118045419 53 329 1.0 1.0 0.00 0.00 0.00 36 1020.3
20220118044918 53 349 1.0 1.0 0.00 0.00 0.00 36 1020.0
20220118044416 53 351 1.0 2.0 0.00 0.00 0.00 36 1020.3
20220118043915 53 346 1.0 1.0 0.00 0.00 0.00 36 1020.0
20220118043413 53 343 1.0 1.0 0.00 0.00 0.00 35 1020.3
20220118042913 53 306 1.0 2.0 0.00 0.00 0.00 35 1020.0
20220118042412 53 15 1.0 2.0 0.00 0.00 0.00 35 1020.0
20220118041911 53 356 1.0 1.0 0.00 0.00 0.00 34 1020.3
20220118041410 53 338 1.0 1.0 0.00 0.00 0.00 35 1020.3
20220118040908 53 288 1.0 1.0 0.00 0.00 0.00 35 1020.0
20220118040407 53 275 1.0 1.0 0.00 0.00 0.00 35 1020.3
20220118035906 53 355 1.0 1.0 0.00 0.00 0.00 35 1020.3
20220118035406 53 336 0.0 1.0 0.00 0.00 0.00 35 1020.3
20220118034906 52 341 0.0 1.0 0.00 0.00 0.00 35 1020.3
20220118034405 52 330 0.0 0.0 0.00 0.00 0.00 36 1020.7
20220118033903 53 334 0.0 1.0 0.00 0.00 0.00 36 1020.3
20220118033401 53 331 0.0 0.0 0.00 0.00 0.00 36 1020.3
20220118032900 53 329 0.0 1.0 0.00 0.00 0.00 35 1020.3
20220118032359 53 333 0.0 1.0 0.00 0.00 0.00 35 1020.3
20220118031858 54 317 1.0 1.0 0.00 0.00 0.00 35 1020.3
20220118031358 54 335 0.0 1.0 0.00 0.00 0.00 35 1020.3
20220118030857 54 337 0.0 1.0 0.00 0.00 0.00 35 1020.3
20220118030357 54 320 1.0 1.0 0.00 0.00 0.00 35 1020.3
20220118025856 55 339 0.0 1.0 0.00 0.00 0.00 35 1020.3
20220118025356 55 343 1.0 1.0 0.00 0.00 0.00 34 1020.7
20220118024854 55 344 1.0 1.0 0.00 0.00 0.00 34 1020.7
20220118024352 55 315 0.0 0.0 0.00 0.00 0.00 35 1020.3
20220118023851 55 336 0.0 1.0 0.00 0.00 0.00 35 1020.7
20220118023350 55 327 0.0 0.0 0.00 0.00 0.00 35 1020.7
20220118022848 55 320 0.0 0.0 0.00 0.00 0.00 34 1021.0
20220118022347 54 323 0.0 0.0 0.00 0.00 0.00 35 1020.7
20220118021846 54 332 0.0 1.0 0.00 0.00 0.00 35 1020.7
20220118021345 54 322 0.0 0.0 0.00 0.00 0.00 35 1020.7
20220118020845 54 333 0.0 0.0 0.00 0.00 0.00 35 1020.7
20220118020344 54 325 0.0 0.0 0.00 0.00 0.00 35 1020.7
20220118015844 55 328 0.0 0.0 0.00 0.00 0.00 35 1020.7
20220118015344 55 306 0.0 1.0 0.00 0.00 0.00 35 1020.7
20220118014843 55 321 0.0 0.0 0.00 0.00 0.00 34 1020.7
20220118014342 55 328 0.0 1.0 0.00 0.00 0.00 35 1020.7
20220118013840 55 337 0.0 0.0 0.00 0.00 0.00 34 1020.3
20220118013340 56 328 0.0 0.0 0.00 0.00 0.00 34 1020.3
20220118012839 56 313 0.0 0.0 0.00 0.00 0.00 34 1020.0
20220118012338 56 331 0.0 0.0 0.00 0.00 0.00 34 1020.3
20220118011836 57 322 0.0 0.0 0.00 0.00 0.00 33 1020.3
20220118011336 57 330 0.0 1.0 0.00 0.00 0.00 33 1020.3
20220118010835 57 324 1.0 1.0 0.00 0.00 0.00 33 1020.3
20220118010334 56 318 1.0 1.0 0.00 0.00 0.00 33 1020.3
20220118005833 56 336 0.0 0.0 0.00 0.00 0.00 34 1020.3
20220118005332 56 332 0.0 1.0 0.00 0.00 0.00 34 1020.3
20220118004832 57 334 0.0 1.0 0.00 0.00 0.00 35 1020.0
20220118004332 57 327 0.0 0.0 0.00 0.00 0.00 35 1020.7
20220118003831 57 332 0.0 0.0 0.00 0.00 0.00 35 1020.0
20220118003330 57 338 0.0 0.0 0.00 0.00 0.00 36 1020.3
20220118002829 57 338 0.0 0.0 0.00 0.00 0.00 35 1020.0
20220118002328 58 334 0.0 0.0 0.00 0.00 0.00 35 1020.3
20220118001827 59 335 0.0 0.0 0.00 0.00 0.00 34 1020.0
20220118001326 59 335 0.0 0.0 0.00 0.00 0.00 33 1020.0
20220118000825 60 341 1.0 1.0 0.00 0.00 0.00 32 1020.3
20220118000324 60 339 0.0 1.0 0.00 0.00 0.00 32 1020.0
20220117235823 60 336 0.0 0.0 0.00 0.00 0.00 32 1020.0
20220117235321 60 343 0.0 1.0 0.00 0.00 0.00 31 1020.0
20220117234822 61 343 0.0 1.0 0.00 0.00 0.00 31 1020.0
20220117234320 61 3 1.0 1.0 0.00 0.00 0.00 30 1020.0
20220117233819 62 351 0.0 1.0 0.00 0.00 0.00 30 1019.6
20220117233318 62 42 1.0 2.0 0.00 0.00 0.00 29 1019.6
20220117232817 62 354 1.0 1.0 0.00 0.00 0.00 29 1020.0
20220117232316 63 1 1.0 1.0 0.00 0.00 0.00 28 1020.0
20220117231815 63 9 1.0 1.0 0.00 0.00 0.00 29 1020.3
20220117231315 63 33 1.0 1.0 0.00 0.00 0.00 29 1020.3
20220117230814 63 3 1.0 2.0 0.00 0.00 0.00 28 1020.3
20220117230314 64 343 1.0 1.0 0.00 0.00 0.00 29 1020.3
20220117225813 64 357 0.0 0.0 0.00 0.00 0.00 29 1020.3
20220117225312 64 338 0.0 1.0 0.00 0.00 0.00 28 1020.3
20220117224811 64 3 0.0 1.0 0.00 0.00 0.00 29 1020.3
20220117224310 64 350 0.0 0.0 0.00 0.00 0.00 28 1020.3
20220117223810 64 359 1.0 2.0 0.00 0.00 0.00 27 1020.3
20220117223309 64 4 1.0 1.0 0.00 0.00 0.00 27 1020.7
20220117222808 64 17 0.0 1.0 0.00 0.00 0.00 27 1020.3
20220117222307 64 17 0.0 0.0 0.00 0.00 0.00 27 1020.3
20220117221806 64 27 0.0 1.0 0.00 0.00 0.00 26 1020.7
20220117221305 64 332 0.0 0.0 0.00 0.00 0.00 27 1020.7
20220117220804 64 27 0.0 1.0 0.00 0.00 0.00 27 1020.7
20220117220303 64 356 1.0 1.0 0.00 0.00 0.00 26 1020.7
20220117215802 64 355 1.0 1.0 0.00 0.00 0.00 26 1021.0
20220117215301 64 8 0.0 1.0 0.00 0.00 0.00 27 1021.0
20220117214800 64 7 1.0 2.0 0.00 0.00 0.00 26 1021.0
20220117214301 64 8 0.0 0.0 0.00 0.00 0.00 27 1020.7
20220117213800 64 14 1.0 2.0 0.00 0.00 0.00 26 1020.7
20220117213259 64 18 1.0 1.0 0.00 0.00 0.00 25 1020.7
20220117212758 64 16 0.0 0.0 0.00 0.00 0.00 27 1020.7
20220117212257 64 16 1.0 1.0 0.00 0.00 0.00 27 1021.0
20220117211755 64 47 1.0 1.0 0.00 0.00 0.00 26 1021.0
20220117211254 64 317 0.0 0.0 0.00 0.00 0.00 26 1021.0
20220117210753 64 359 0.0 0.0 0.00 0.00 0.00 26 1021.0
20220117210252 64 5 0.0 1.0 0.00 0.00 0.00 26 1021.3
20220117205752 64 6 0.0 0.0 0.00 0.00 0.00 27 1021.3
20220117205251 64 6 0.0 1.0 0.00 0.00 0.00 27 1021.0
20220117204750 64 4 1.0 1.0 0.00 0.00 0.00 25 1021.0
20220117204250 64 4 0.0 0.0 0.00 0.00 0.00 27 1021.0
20220117203749 63 7 0.0 1.0 0.00 0.00 0.00 26 1020.7
20220117203248 63 3 0.0 0.0 0.00 0.00 0.00 27 1021.0
20220117202747 63 5 1.0 1.0 0.00 0.00 0.00 25 1021.3
20220117202246 63 5 0.0 1.0 0.00 0.00 0.00 25 1021.3
20220117201747 63 5 0.0 0.0 0.00 0.00 0.00 26 1021.3
20220117201245 63 27 0.0 1.0 0.00 0.00 0.00 28 1021.3
20220117200745 63 5 0.0 0.0 0.00 0.00 0.00 28 1021.7
20220117200244 63 85 1.0 2.0 0.00 0.00 0.00 25 1021.3
20220117195743 63 335 0.0 1.0 0.00 0.00 0.00 27 1021.3
20220117195242 62 338 0.0 0.0 0.00 0.00 0.00 26 1021.7
20220117194741 62 335 0.0 0.0 0.00 0.00 0.00 28 1021.7
20220117194240 62 28 1.0 1.0 0.00 0.00 0.00 27 1021.7
20220117193739 62 341 1.0 1.0 0.00 0.00 0.00 27 1021.7
20220117193238 62 7 2.0 2.0 0.00 0.00 0.00 27 1021.7
20220117192738 62 25 1.0 2.0 0.00 0.00 0.00 27 1022.4
20220117192237 62 66 1.0 1.0 0.00 0.00 0.00 27 1023.1
20220117191737 62 38 1.0 1.0 0.00 0.00 0.00 28 1023.1
20220117191236 62 85 0.0 1.0 0.00 0.00 0.00 28 1023.1
20220117190734 61 344 1.0 1.0 0.00 0.00 0.00 29 1022.8
20220117190234 60 332 1.0 1.0 0.00 0.00 0.00 30 1022.8
20220117185735 61 342 0.0 0.0 0.00 0.00 0.00 30 1022.8
20220117185233 61 344 1.0 1.0 0.00 0.00 0.00 30 1023.1
20220117184733 60 265 2.0 2.0 0.00 0.00 0.00 31 1023.1
20220117184231 60 343 0.0 1.0 0.00 0.00 0.00 31 1023.1
20220117183730 60 5 1.0 1.0 0.00 0.00 0.00 32 1023.1
20220117183229 60 68 0.0 0.0 0.00 0.00 0.00 32 1023.5
20220117182730 60 19 0.0 1.0 0.00 0.00 0.00 31 1023.5
20220117182228 59 339 0.0 0.0 0.00 0.00 0.00 34 1023.5
20220117181729 59 58 1.0 1.0 0.00 0.00 0.00 32 1023.8
20220117181227 60 359 0.0 1.0 0.00 0.00 0.00 33 1023.8
20220117180727 59 1 0.0 0.0 0.00 0.00 0.00 34 1023.8
20220117180225 59 9 0.0 0.0 0.00 0.00 0.00 34 1024.1
20220117175724 59 13 0.0 1.0 0.00 0.00 0.00 34 1024.1
20220117175222 58 10 1.0 2.0 0.00 0.00 0.00 32 1024.1
20220117174722 58 21 0.0 0.0 0.00 0.00 0.00 34 1024.5
20220117174221 57 27 0.0 0.0 0.00 0.00 0.00 34 1024.5
20220117173720 57 33 0.0 1.0 0.00 0.00 0.00 35 1024.5
20220117173220 57 10 1.0 1.0 0.00 0.00 0.00 34 1024.5
20220117172719 57 74 1.0 1.0 0.00 0.00 0.00 33 1024.5
20220117172218 57 336 0.0 0.0 0.00 0.00 0.00 37 1024.5
20220117171717 56 344 0.0 0.0 0.00 0.00 0.00 38 1024.8
20220117171216 56 83 1.0 1.0 0.00 0.00 0.00 35 1024.8
20220117170715 56 339 0.0 0.0 0.00 0.00 0.00 40 1024.8
20220117170215 55 345 0.0 0.0 0.00 0.00 0.00 40 1024.8
20220117165714 55 339 0.0 0.0 0.00 0.00 0.00 39 1024.8
20220117165212 55 346 0.0 0.0 0.00 0.00 0.00 39 1024.8
20220117164711 54 344 0.0 0.0 0.00 0.00 0.00 41 1024.8
20220117164212 55 343 0.0 1.0 0.00 0.00 0.00 40 1024.8
20220117163710 55 343 0.0 1.0 0.00 0.00 0.00 39 1025.2
20220117163208 54 340 1.0 1.0 0.00 0.00 0.00 41 1024.8
20220117162708 52 342 0.0 0.0 0.00 0.00 0.00 42 1024.5
20220117162207 51 327 0.0 0.0 0.00 0.00 0.00 44 1024.8
20220117161707 51 327 0.0 0.0 0.00 0.00 0.00 46 1024.5
20220117161206 50 327 1.0 1.0 0.00 0.00 0.00 45 1024.8
20220117160705 49 326 0.0 1.0 0.00 0.00 0.00 47 1024.5
20220117160204 49 279 0.0 1.0 0.00 0.00 0.00 47 1024.5
20220117155703 49 337 0.0 0.0 0.00 0.00 0.00 47 1024.5
20220117155202 48 338 0.0 1.0 0.00 0.00 0.00 48 1024.5
20220117154702 48 325 0.0 0.0 0.00 0.00 0.00 49 1024.5
20220117154201 47 324 0.0 0.0 0.00 0.00 0.00 50 1024.5
20220117153700 46 318 1.0 1.0 0.00 0.00 0.00 51 1024.5
20220117153200 45 327 0.0 0.0 0.00 0.00 0.00 55 1024.5
20220117152659 44 322 1.0 1.0 0.00 0.00 0.00 55 1024.1
20220117152158 44 320 1.0 1.0 0.00 0.00 0.00 55 1024.1
20220117151657 44 314 1.0 1.0 0.00 0.00 0.00 55 1024.5
20220117151156 43 328 0.0 0.0 0.00 0.00 0.00 55 1024.5
20220117150655 43 325 0.0 0.0 0.00 0.00 0.00 56 1024.1
20220117150154 42 323 0.0 0.0 0.00 0.00 0.00 56 1024.1
20220117145653 42 332 1.0 1.0 0.00 0.00 0.00 56 1024.1
20220117145152 42 308 1.0 1.0 0.00 0.00 0.00 57 1024.1
20220117144651 41 323 1.0 1.0 0.00 0.00 0.00 57 1023.8
20220117144150 41 328 0.0 0.0 0.00 0.00 0.00 59 1023.8
20220117143648 40 333 0.0 0.0 0.00 0.00 0.00 61 1023.8
20220117143147 39 329 0.0 0.0 0.00 0.00 0.00 62 1023.8
20220117142647 38 331 0.0 0.0 0.00 0.00 0.00 63 1023.8
20220117142148 37 327 0.0 0.0 0.00 0.00 0.00 64 1023.5
20220117141646 37 326 0.0 0.0 0.00 0.00 0.00 65 1023.5
20220117141145 37 327 0.0 0.0 0.00 0.00 0.00 65 1023.8
20220117140646 36 327 0.0 0.0 0.00 0.00 0.00 66 1023.5
20220117140144 35 323 0.0 0.0 0.00 0.00 0.00 66 1023.8
20220117135643 35 323 0.0 0.0 0.00 0.00 0.00 67 1023.8
20220117135142 34 325 0.0 0.0 0.00 0.00 0.00 68 1023.5
20220117134641 34 326 0.0 0.0 0.00 0.00 0.00 68 1023.5
20220117134139 34 325 0.0 0.0 0.00 0.00 0.00 69 1023.5
20220117133639 34 326 0.0 1.0 0.00 0.00 0.00 70 1023.5
20220117133138 34 325 0.0 0.0 0.00 0.00 0.00 69 1023.5
20220117132638 34 326 0.0 0.0 0.00 0.00 0.00 69 1023.1
20220117132137 35 325 0.0 0.0 0.00 0.00 0.00 68 1023.5
20220117131636 35 325 0.0 0.0 0.00 0.00 0.00 68 1023.1
20220117131136 35 323 0.0 0.0 0.00 0.00 0.00 67 1023.1
20220117130636 35 319 0.0 1.0 0.00 0.00 0.00 66 1023.1
20220117130136 35 325 0.0 0.0 0.00 0.00 0.00 66 1023.1
20220117125634 34 325 0.0 0.0 0.00 0.00 0.00 68 1022.8
20220117125133 34 323 0.0 0.0 0.00 0.00 0.00 68 1022.8
20220117124632 34 325 0.0 0.0 0.00 0.00 0.00 69 1022.8
20220117124131 34 326 0.0 0.0 0.00 0.00 0.00 67 1022.8
20220117123630 34 326 0.0 0.0 0.00 0.00 0.00 68 1022.8
20220117123130 35 326 0.0 0.0 0.00 0.00 0.00 68 1022.4
20220117122629 35 327 0.0 0.0 0.00 0.00 0.00 68 1022.4
20220117122128 35 327 0.0 0.0 0.00 0.00 0.00 66 1022.4
20220117121627 35 325 0.0 0.0 0.00 0.00 0.00 66 1022.0
20220117121126 35 326 0.0 1.0 0.00 0.00 0.00 65 1022.4
20220117120625 35 326 0.0 0.0 0.00 0.00 0.00 65 1022.0
20220117120125 35 323 0.0 1.0 0.00 0.00 0.00 64 1022.4
20220117115625 35 326 0.0 0.0 0.00 0.00 0.00 67 1022.0
20220117115124 35 326 0.0 0.0 0.00 0.00 0.00 66 1022.0
20220117114622 35 324 0.0 0.0 0.00 0.00 0.00 66 1022.0
20220117114121 34 325 0.0 0.0 0.00 0.00 0.00 68 1022.0
20220117113621 35 325 0.0 0.0 0.00 0.00 0.00 67 1021.7
20220117113120 35 325 0.0 0.0 0.00 0.00 0.00 66 1022.0
20220117112619 36 325 0.0 0.0 0.00 0.00 0.00 66 1022.0
20220117112118 36 325 0.0 0.0 0.00 0.00 0.00 64 1021.7
20220117111617 35 318 1.0 1.0 0.00 0.00 0.00 64 1022.0
20220117111116 35 326 0.0 0.0 0.00 0.00 0.00 64 1022.0
20220117110615 35 324 0.0 0.0 0.00 0.00 0.00 65 1022.0
20220117110114 36 325 0.0 0.0 0.00 0.00 0.00 64 1022.0
20220117105613 36 323 0.0 0.0 0.00 0.00 0.00 64 1021.7
20220117105112 36 326 0.0 0.0 0.00 0.00 0.00 63 1022.0
20220117104611 36 326 0.0 0.0 0.00 0.00 0.00 63 1022.0
20220117104110 36 326 0.0 0.0 0.00 0.00 0.00 64 1022.4
20220117103610 36 326 0.0 0.0 0.00 0.00 0.00 64 1022.0
20220117103109 36 326 0.0 0.0 0.00 0.00 0.00 63 1022.0
20220117102608 37 324 0.0 0.0 0.00 0.00 0.00 63 1022.0
20220117102108 37 325 0.0 1.0 0.00 0.00 0.00 62 1021.7
20220117101607 37 324 0.0 0.0 0.00 0.00 0.00 62 1021.7
20220117101107 36 326 0.0 0.0 0.00 0.00 0.00 63 1021.7
20220117100606 36 325 0.0 0.0 0.00 0.00 0.00 63 1021.7
20220117100105 36 326 0.0 0.0 0.00 0.00 0.00 63 1022.0
20220117095605 36 323 0.0 0.0 0.00 0.00 0.00 64 1022.0
20220117095104 37 326 0.0 0.0 0.00 0.00 0.00 64 1021.7
20220117094603 37 332 0.0 0.0 0.00 0.00 0.00 62 1022.0
20220117094102 37 325 0.0 1.0 0.00 0.00 0.00 62 1021.7
20220117093601 37 317 1.0 1.0 0.00 0.00 0.00 61 1022.0
20220117093059 37 325 0.0 0.0 0.00 0.00 0.00 62 1022.0
20220117092559 38 325 0.0 0.0 0.00 0.00 0.00 61 1022.0
20220117092058 38 325 0.0 0.0 0.00 0.00 0.00 60 1021.7
20220117091557 38 323 1.0 1.0 0.00 0.00 0.00 60 1021.7
20220117091056 39 325 0.0 0.0 0.00 0.00 0.00 60 1022.0
20220117090555 39 334 0.0 0.0 0.00 0.00 0.00 57 1021.7
20220117090054 39 322 1.0 1.0 0.00 0.00 0.00 56 1021.7
20220117085555 38 318 1.0 1.0 0.00 0.00 0.00 58 1021.7
20220117085054 39 326 0.0 0.0 0.00 0.00 0.00 59 1021.3
20220117084554 38 328 1.0 1.0 0.00 0.00 0.00 59 1021.7
20220117084053 38 325 0.0 0.0 0.00 0.00 0.00 59 1021.7
20220117083552 39 327 0.0 0.0 0.00 0.00 0.00 58 1021.7
20220117083050 39 326 0.0 0.0 0.00 0.00 0.00 59 1021.7
20220117082549 39 326 0.0 0.0 0.00 0.00 0.00 58 1021.7
20220117082048 39 324 0.0 0.0 0.00 0.00 0.00 58 1021.7
20220117081547 39 323 0.0 0.0 0.00 0.00 0.00 57 1021.7
20220117081047 39 325 0.0 0.0 0.00 0.00 0.00 58 1021.7
20220117080546 39 327 0.0 0.0 0.00 0.00 0.00 57 1021.3
20220117080045 40 327 0.0 0.0 0.00 0.00 0.00 57 1021.7
20220117075544 40 326 0.0 0.0 0.00 0.00 0.00 56 1021.0
20220117075043 41 328 0.0 0.0 0.00 0.00 0.00 55 1021.3
20220117074543 41 326 0.0 0.0 0.00 0.00 0.00 55 1021.3
20220117074042 42 326 0.0 0.0 0.00 0.00 0.00 53 1021.3
20220117073541 42 329 0.0 0.0 0.00 0.00 0.00 52 1021.0
20220117073041 43 331 0.0 0.0 0.00 0.00 0.00 51 1021.0
20220117072540 43 331 0.0 0.0 0.00 0.00 0.00 51 1021.0
20220117072039 43 331 0.0 0.0 0.00 0.00 0.00 50 1021.0
20220117071538 43 327 0.0 0.0 0.00 0.00 0.00 50 1021.0